www.pogodaiklimat.ru

Погода и климат >> Архив погоды >> Беларусь >> Воложин


ПОГОДА в Воложине

  • Прогноз погоды в Воложине
  • Монитор погоды в Воложине

АРХИВ ПОГОДЫ в Воложине

Время (UTC), дата Ветер
(напр.,м/с)
 
Видим.   Явления Облачность Т
(С)
Тd
(С)
f
(%)
Тe
(С)
Тes
(С)
Комфортность P
(гПа)
Po
(гПа)
Тmin
(С)
Tmax
(С)
R
(мм)
R24
(мм)
S
(см)
12 12.06 ЮВ 2 20 км 6/6 1000 м
[Cu med, cong]
+32.1 +15.6 37 +35 +40 очень
душно
1015.0 997.6
15 12.06 ЮЗ 2 30 км 6/0
[Ci fib]
+32.3 +14.9 35 +34 +36 душно 1014.0 996.6
18 12.06 штиль 0 30 км 8/0
[Ac trans]
+29.3 +16.1 45 +32 +32 душно 1015.0 997.5 +33.4
21 12.06 СВ 1 30 км ясно +24.0 +15.7 60 +27 +27 жарко 1016.0 998.1
00 13.06 СВ 2 35 км ясно +21.4 +15.9 71 +25 +25 комфорт 1017.0 999.0
03 13.06 СВ 2 24 км ясно +20.9 +16.3 75 +25 +26 комфорт 1017.0 998.9 +20.2
06 13.06 В 2 35 км ясно +26.9 +17.6 57 +31 +38 душно 1017.0 999.3 +20.2
09 13.06 В 3 29 км ясно +30.8 +17.8 46 +35 +48 очень
душно
1017.0 999.5
12 13.06 ЮВ 4 22 км 8/8 1000 м
[Cu med, cong]
+31.9 +16.6 40 +35 +35 очень
душно
1016.0 998.6
15 13.06 В 7-12
{14}
30 км {гроза} 8/6 600 м
[Cb calv Ac As]
+27.1 +17.6 56 +31 +31 душно 1016.0 998.3
18 13.06 ЮВ 4
{11}
35 км {гроза, ливн. осадки} 9/0
[Ac As]
+23.5 +16.8 66 +27 +27 душно 1017.0 999.1 +32.8 0.0
21 13.06 В 2 35 км ясно +21.0 +15.3 70 +25 +25 комфорт 1018.0 999.9
00 14.06 ЮВ 2 30 км 6/0
[Ac trans]
+20.4 +15.8 75 +24 +24 комфорт 1017.0 998.9
03 14.06 ЮВ 1 30 км ясно +20.2 +16.2 78 +24 +25 комфорт 1018.0 999.9 +19.5
06 14.06 ЮЗ 3 30 км ясно +24.6 +17.8 66 +29 +35 душно 1017.0 999.2 +19.5
09 14.06 ЮЗ 3 29 км 3/3 1000 м
[Cu med, cong]
+30.4 +17.1 45 +34 +43 очень
душно
1016.0 998.5
12 14.06 ЮЗ 9-15
{16}
9000 м гроза, ливневой дождь 9/8 600 м
[Cb cap Ac As]
+21.0 +18.0 83 +25 +25 комфорт 1019.0 1000.9
15 14.06 штиль 0
{15}
35 км {гроза, ливн. осадки} 8/0
[Ac trans]
+22.2 +18.8 81 +28 +28 душно 1018.0 1000.0
18 14.06 ЮЗ 1 29 км {гроза, ливн. осадки} 8/0
[Ci fib]
+23.8 +19.9 79 +29 +29 душно 1018.0 1000.1 +32.2 6
21 14.06 СЗ 2 35 км 8/0
[Ci fib]
+21.5 +15.3 68 +25 +25 комфорт 1019.0 1000.9
00 15.06 С 3 30 км ясно +18.7 +16.3 86 +20 +20 1019.0 1000.8
03 15.06 СВ 3 35 км ясно +17.0 +13.9 82 +17 +17 1019.0 1000.6 +16.7
06 15.06 С 4 35 км 3/0
[Ci fib]
+19.6 +13.1 66 +21 +24 комфорт 1019.0 1000.8 +16.7
09 15.06 С 2 30 км 3/3 1000 м
[Cu hum]
+22.8 +12.7 53 +26 +36 жарко 1019.0 1001.0
12 15.06 С 1 35 км 4/3 1000 м
[Cu med, cong Ci fib]
+25.5 +13.3 47 +28 +39 жарко 1017.0 999.2
15 15.06 С 2 35 км 4/0
[Ci fib]
+26.0 +11.0 39 +27 +31 жарко 1016.0 998.2
18 15.06 СВ 2 35 км ясно +22.0 +12.3 54 +24 +25 комфорт 1016.0 998.0 +26.4
21 15.06 СВ 3 10 км ясно +18.4 +10.2 59 +19 +19 1016.0 997.8
00 16.06 СВ 3 35 км ясно +16.4 +11.1 71 +16 +16 1017.0 998.6
03 16.06 СВ 3 35 км 8/0
[Ac trans]
+16.2 +12.2 77 +16 +16 1016.0 997.6 +15.4
06 16.06 В 3 35 км 9/0
[Ac As]
+18.6 +12.8 69 +19 +19 1016.0 997.8 +15.4
09 16.06 СВ 4 30 км 9/0
[Ac As]
+19.0 +15.7 81 +20 +20 1016.0 997.8
12 16.06 ЮВ 3
{11}
30 км гроза, ливневой дождь 9/8 600 м
[Cb cap Ac As]
+18.5 +14.8 79 +19 +19 1014.0 995.8
15 16.06 СВ 4 29 км {гроза, ливн. осадки} 8/0
[Ac trans]
+18.7 +13.8 73 +19 +19 1015.0 996.8
18 16.06 СВ 2 35 км {гроза, ливн. осадки} 9/0
[Ac As]
+17.4 +14.7 84 +18 +18 1015.0 996.7 +20.0 6
21 16.06 СВ 1 30 км 8/0
[Ci fib]
+15.8 +14.7 93 +16 +16 1015.0 996.6
00 17.06 штиль 0 35 км 4/0
[Ac trans]
+15.4 +13.6 89 +15 +15 1016.0 997.6
03 17.06 З 1 28 км 8/0
[Ac trans]
+15.3 +14.2 93 +16 +16 1016.0 997.6 +14.2
06 17.06 ЮЗ 1 20 км 9/0
[Ac trans]
+17.5 +16.0 91 +19 +19 1016.0 997.7 +14.2
09 17.06 З 3 35 км 9/0
[Ac trans]
+19.3 +14.8 75 +21 +21 комфорт 1017.0 998.8
12 17.06 З 3 35 км 8/8 720 м
[Sc]
+20.8 +14.7 68 +24 +24 комфорт 1017.0 998.9
15 17.06 З 4 35 км 9/9 660 м
[Sc]
+19.9 +15.7 77 +22 +22 комфорт 1017.0 998.9
18 17.06 З 2 35 км 8/8 700 м
[Sc]
+19.0 +16.2 84 +21 +21 комфорт 1017.0 998.8 +21.1
21 17.06 СЗ 2 35 км 8/8 600 м
[Sc]
+17.2 +14.8 86 +18 +18 1018.0 999.7
00 18.06 штиль 0 35 км 6/0
[Ci fib]
+15.6 +14.5 93 +15 +15 1019.0 1000.5
03 18.06 СЗ 1 20 км ясно +15.4 +14.1 92 +16 +17 1020.0 1001.5 +14.5
06 18.06 С 3 35 км ясно +18.8 +11.4 62 +20 +26 1020.0 1001.7 +14.5
09 18.06 С 2 35 км 3/3 1000 м
[Cu med, cong]
+22.1 +13.2 57 +25 +36 комфорт 1020.0 1001.9
12 18.06 СЗ 1 10 км 3 балла +24.6 +11.9 45 +26 +38 жарко 1019.0 1001.1
15 18.06 С 3 10 км 3 балла +24.8 +11.7 44 +26 +29 жарко 1018.0 1000.1
18 18.06 С 1 10 км 3 балла +22.7 +10.5 46 +25 +25 комфорт 1018.0 1000.0 +25.7
21 18.06 С 2 10 км 3 балла +19.3 +10.3 56 +21 +21 комфорт 1019.0 1000.8
00 19.06 СВ 3 10 км ясно +17.2 +10.3 64 +17 +17 1020.0 1001.6
03 19.06 СВ 2 10 км ясно +17.4 +10.5 64 +18 +18 1019.0 1000.6 +16.4
06 19.06 В 1 10 км 3 балла +22.2 +12.2 53 +25 +30 комфорт 1019.0 1000.9 +16.4
09 19.06 Ю 1 10 км 3 балла +24.4 +11.3 44 +26 +39 жарко 1018.0 1000.1

 

Местоположение метеостанции Воложин (Минская область, Беларусь): широта 54.09 долгота 26.52 высота над уровнем моря 155 м.

В архиве по умолчанию представлена погода в Воложине за последнюю неделю. Архивные данные за месяц целиком и за предыдущие месяцы, начиная с января 2011 года, Вы можете получить, выбрав интересующий диапазон дат из раскрывающегося списка и нажав кнопку "Ввод!".


*Определитесь, кто Вы:
робот инопланетянин человек

Внимание! Время в таблицах - всемирное. Для получения местного времени необходимо прибавить поправку, которая равна 3 ч.

Смотрите также архив погоды в соседних городах и на ближайших метеорологических станциях:

Погода в Ошмянах (Гродненская область, Беларусь) (54 км)
Погода в Вилейке (Минская область, Беларусь) (56 км)
Погода в Столбцах (Минская область, Беларусь) (69 км)
Погода в Новогрудке (Гродненская область, Беларусь) (70 км)
Погода в Минске (город Минск, Беларусь) (78 км)
Погода в Лиде (Гродненская область, Беларусь) (81 км)
Погода в Нарочи (Минская область, Беларусь) (95 км)
Погода в Вильнюсе (Литва) (100 км)
Погода в Лынтупах (Витебская область, Беларусь) (108 км)
Погода в Барановичах (Брестская область, Беларусь) (113 км)

Пояснения к столбцам:

Ветер - указаны скорость ветра в м/с - средняя за 10 мин, порывы в срок и между сроками (в фигурных скобках) и направление, откуда дует ветер: С - северный, СВ - северо-восточный, В - восточный, ЮВ - юго-восточный, Ю - южный, ЮЗ - юго-западный, З - западный, СЗ - северо-западный.
Видимость - горизонтальная дальность видимости в метрах или километрах. При видимости от 1 до 10 км при отсутствии осадков обычно наблюдается дымка, при ухудшении видимости до 1 км и менее - туман. В сухую погоду видимость может ухудшаться дымом, пылью или мглою.
Явления - указаны атмосферные явления, наблюдавшиеся в срок или в последний час перед сроком; фигурными скобками обозначены явления, наблюдавшиеся между сроками (за 1-3 часа до срока); квадратными скобками обозначены град или гололедные отложения с указанием их диаметра в мм.
Облачность - указаны через наклонную черту общая и нижняя облачность в баллах и высота нижней границы облаков в метрах; квадратными скобками обозначены формы облаков: Ci - перистые, Cs - перисто-слоистые, Cc - перисто-кучевые, Ac - высококучевые, As - высокослоистые, Sc - слоисто-кучевые, Ns - слоисто-дождевые, Cu - кучевые, Cb - кучево-дождевые. Подробнее классификацию облаков см. в Атласе облаков (PDF).
T - Температура воздуха - температура, измеренная на высоте 2 м над землей.
Td - Температура точки росы - температура, при понижении до которой содержащийся в воздухе водяной пар достигнет насыщения.
f - Относительная влажность воздуха - влажноcть воздуха, измеренная на высоте 2 м над землей.
Te - Эффективная температура - температура, которую ощущает одетый по сезону человек в тени. Характеристика душности погоды. При расчете учитывается влияние влажности воздуха и скорости ветра на теплоощущения человека.
Tes - Эффективная температура на солнце - температура, которую ощущает человек, с поправкой на солнечный нагрев. Характеристика знойности погоды. Зависит от высоты солнца над горизонтом, облачности и скорости ветра. Ночью, в пасмурную погоду, а также при ветре 12 м/с и более поправка равна нулю.
P - Атмосферное давление - приведенное к уровню моря атмосферное давление.
Po - Атмосферное давление - измеренное на уровне метеостанции атмосферное давление.
Tmin - Минимальная температура - минимум температуры воздуха на высоте 2 м над землей.
Tmax - Максимальная температура - максимум температуры воздуха на высоте 2 м над землей.
R - Количество осадков - Количество выпавших осадков за период времени, мм. При наведении курсора мыши на число - период времени, за который выпало указанное количество осадков.
R24 - Количество осадков - Количество выпавших осадков за 24 часа, мм.
S - Снежный покров - Высота снежного покрова, см. При наведении курсора мыши на число - состояние снежного покрова и степень покрытия местности в баллах.